User: anonymous   Login
Location: Columbia
(38.9520°N, 92.3340°W)
Time: 01:20:46
(UTC-05:00)
Language:

FENGYUN 3A - Orbit

View from above orbital plane
View from above orbital plane
View from above satellite
View from above satellite

Ground track
Ground track

The orbit data is extracted from the following two-line orbital elements,

1 32958U 08026A   16239.81911849 -.00000011  00000-0  14293-4 0  9991
2 32958  98.4462 276.6589 0010712  57.7362 302.4833 14.19628148427578
Epoch (UTC): 26 August 2016 19:39:31
Eccentricity: 0.0010712
inclination: 98.4462°
perigee height: 819 km
apogee height: 834 km
right ascension of ascending node: 276.6589°
argument of perigee: 57.7362°
revolutions per day: 14.19628148
mean anomaly at epoch: 302.4833°
orbit number at epoch: 42757

The dashed part of the orbit path shows where the satellite is in the earth's shadow,  

DLR